FALCON 9 DEB (43483 NORAD) Tracking and Keplerian Element Data

This shows tracking and keplerian element data for the satellite.

Feedback or suggestion? Click here.




ElementValue
Catalog43483
NameFALCON 9 DEB
Epoch Orbit403
Epoch Day170.12701115
Epoch Year2018
RAAN235.6038
Inclination89.0521
Eccentricity0.0019476
Argument of Perigee163.4578
Mean Anonmoly196.7331
Mean Motion15.29235498
Decay Rate0.00068358
L11 43483U 18047H 18170.12701115 .00068358 00000-0 23798-2 0 9998
L22 43483 89.0521 235.6038 0019476 163.4578 196.7331 15.29235498 4032

Live tracking and technical data element details for FALCON 9 DEB (NORAD 43483). FALCON 9 DEB can be tracked NOW for your location showing map with azimuth and elevation plus other details from your city location.

Track the satellite on the map from your city or location and see movement details for azimuth, elevation, latitude, longitude, range, height, and movement on the map or in text.







IsCatalogInMostPopularTable: catalog: 43483, numindb: 54
Update: records affected: 1



GetName: 43483 FALCON 9 DEB

Hit Count: updated at: Sat, 17 Nov 2018 02:28:03 GMT